LiveATC.Net - Listen to live air traffic control over the Internet!


ICAO: UKKK  IATA: IEV   Airport: Zhuliany International Airport
City: Kyiv
Country: Ukraine   Continent: Europe
UKKK METAR Weather: UKKK 221200Z 28006MPS 9999 SCT025 24/17 Q1016 R26/CLRD70 NOSIG
UKKK Flight Activity (FlightAware)

UKKK Gnd/Twr/ACC
Feed Status: DOWN
Last heard on: 2019-07-22 12:17:07 (0 days 0 hours 23 minutes ago)
UKKK Gnd/Twr/ACC Audio Archives
FacilityFrequency
Emergency/Guard121.500
Kyiv Radar ACC122.775
Kyiv Radar ACC124.675
Kyiv Radar ACC125.300
Kyiv Radar ACC127.725
Kyiv Radar ACC128.175
Kyiv Zhuliany Ground119.000
Kyiv Zhuliany Tower120.700

NOTICE

Unauthorized use prohibited. See LiveATC.net Terms of Service


Find LiveATC Audio Streams


Airport/ARTCC Code

Frequency Search
(e.g., 124.400, 128.75)
Site-wide search
 


Browse LiveATC Feeds
Top 50 LiveATC Feeds
LiveATC Feed Map
Bad Weather Areas

LiveATC FAQ
Offer LiveATC feed
Contact LiveATC.net
Press Inquiries

LiveATC on iPhone
LiveATC on Android

Windows Phone
Windows 8/10

LiveATC Mobile
(Mobile browser)

ATC Audio Archives
Interesting Recordings

LiveATC Forums


Home Page
About LiveATC.net
Make a Donation
Terms of Use
Privacy Policy

Canadian Air Freqs

AIRMETs/SIGMETs

FAA Airport Status
Nat'l Airspace Status
Arrival Demand Charts


Server Software By:
Icecast.org
Liquidsoap